Location: Wien
(48.2082°N, 16.3738°E)
Time: 18:54:26
(UTC+02:00)

Transit 2A - Visible Passes

Search period start: 10 October 2024 00:00
Search period end: 20 October 2024 00:00
Orbit: 590 x 960 km, 66.7° (Epoch: 09 October)

Date Brightness Start Highest point End Pass type
(mag) Time Alt. Az. Time Alt. Az. Time Alt. Az.
10 Oct 8.2 19:03:57 10° NNW 19:07:51 17° NNE 19:11:37 10° NE visible
10 Oct 7.0 20:47:02 10° NNW 20:52:35 39° NE 20:52:35 39° NE visible
10 Oct 8.2 22:30:21 10° NW 22:32:58 25° NW 22:32:58 25° NW visible
11 Oct 7.2 20:11:36 10° NNW 20:17:05 31° NE 20:18:05 30° NE visible
11 Oct 7.5 21:54:44 10° NW 21:58:28 38° NW 21:58:28 38° NW visible
12 Oct 7.6 19:36:09 10° NNW 19:41:15 26° NNE 19:43:37 20° ENE visible
12 Oct 6.7 21:19:11 10° NW 21:24:00 56° NNW 21:24:00 56° NNW visible
12 Oct 9.0 23:03:45 10° WNW 23:04:24 12° WNW 23:04:24 12° WNW visible
13 Oct 7.8 19:00:42 10° NNW 19:05:23 21° NNE 19:09:11 12° ENE visible
13 Oct 6.3 20:43:40 10° NNW 20:49:35 64° NE 20:49:35 64° NE visible
13 Oct 8.5 22:27:37 10° NW 22:29:59 20° WNW 22:29:59 20° WNW visible
14 Oct 6.5 20:08:12 10° NNW 20:14:10 49° NE 20:15:12 44° ENE visible
14 Oct 7.8 21:51:45 10° NW 21:55:36 31° W 21:55:36 31° W visible
15 Oct 6.9 19:32:44 10° NNW 19:38:27 38° NE 19:40:53 27° E visible
15 Oct 6.9 21:16:02 10° NW 21:21:17 50° W 21:21:17 50° W visible
16 Oct 7.2 18:57:17 10° NNW 19:02:40 30° NE 19:06:37 15° E visible
16 Oct 6.2 20:40:24 10° NW 20:46:27 72° WSW 20:47:02 66° SSW visible
16 Oct 8.8 22:26:00 10° WNW 22:27:27 12° W 22:27:27 12° W visible
17 Oct 6.1 20:04:50 10° NW 20:10:57 84° NE 20:12:52 44° SE visible
17 Oct 8.3 21:49:19 10° WNW 21:53:15 19° WSW 21:53:16 19° WSW visible
18 Oct 6.3 19:29:19 10° NNW 19:35:22 62° NE 19:38:47 24° SE visible
18 Oct 7.8 21:13:13 10° NW 21:18:03 27° WSW 21:19:13 25° SW visible
19 Oct 6.6 18:53:50 10° NNW 18:59:43 47° NE 19:04:50 11° ESE visible
19 Oct 7.4 20:37:20 10° NW 20:42:47 38° WSW 20:45:16 25° SSW visible
